Theta_e
308 307 308 316 318 320 322 323 322 323 325 331 334 330 329 332 331 332 339 341 330 330 332 335 340 339 338 334 323 314 310 308 308 309 309 308 308 308 307 307 307 307 307 307 307 307 307 307 307
308 308 312 317 309 320 316 323 325 324 325 327 336 339 339 339 339 339 340 340 331 331 333 336 341 339 337 333 319 311 308 308 309 308 308 307 307 307 307 307 307 307 306 306 306 306 306 306 306
309 311 315 313 310 312 313 322 323 323 324 328 333 340 340 341 342 340 340 338 333 333 333 339 339 337 335 329 317 309 308 309 308 308 307 307 307 307 307 306 306 306 306 305 305 305 305 305 306
312 314 313 312 312 312 312 313 312 311 317 328 335 338 342 342 342 341 340 338 335 337 335 340 339 336 333 325 314 308 308 308 308 307 307 307 307 306 306 306 305 305 305 305 305 305 305 305 305
313 314 308 308 309 311 310 310 311 310 312 314 315 330 341 342 342 341 340 339 338 338 337 340 339 334 331 322 311 308 308 308 307 307 307 307 306 306 305 305 305 306 306 306 305 304 304 304 305
313 310 308 309 310 308 307 312 310 309 312 314 315 334 340 342 342 341 341 340 340 338 339 340 339 333 328 319 308 308 308 308 307 307 307 306 306 305 305 305 306 307 306 306 305 305 304 304 306
310 308 309 308 311 311 310 313 311 311 312 314 316 335 338 341 342 343 343 341 340 339 339 341 338 332 326 315 308 308 308 307 307 307 306 306 305 305 305 306 307 307 307 306 306 305 304 304 305
314 309 314 310 309 310 309 313 313 314 313 316 333 335 338 343 343 345 345 343 340 340 340 340 335 331 321 311 308 308 308 307 307 307 306 305 305 306 306 307 307 307 307 306 306 306 305 304 305
314 310 312 313 310 311 312 311 313 313 313 314 318 320 328 339 342 345 343 341 340 340 338 339 334 329 318 309 308 308 307 307 307 306 306 305 305 306 306 307 307 307 307 307 306 306 306 305 305
311 310 311 312 311 311 312 312 313 312 313 314 314 316 327 340 341 342 341 341 339 337 335 337 333 327 316 309 308 308 307 307 307 306 306 305 305 306 306 307 307 307 306 306 306 306 306 306 306
312 312 311 313 314 314 313 312 313 312 312 313 312 313 323 340 342 340 341 339 338 336 336 337 333 324 315 309 308 307 307 307 306 306 306 306 306 306 306 306 307 307 306 306 306 306 306 306 306
313 313 314 314 314 314 312 313 312 312 312 313 313 312 313 327 340 340 340 339 338 337 335 334 332 323 315 309 308 307 307 307 307 306 306 306 306 306 306 306 307 306 306 306 306 306 306 306 306
312 312 314 314 313 314 313 312 312 312 313 313 312 312 312 312 325 337 338 338 338 337 336 335 332 324 314 309 307 307 307 307 307 307 306 306 306 306 306 306 306 306 306 306 306 306 306 306 306
313 314 313 313 313 313 313 313 312 313 313 312 313 313 312 312 312 325 337 337 337 337 335 333 332 325 314 309 307 307 307 308 307 307 306 306 306 306 306 306 307 306 306 306 306 306 306 306 306
314 312 311 312 312 312 312 312 312 314 312 312 312 313 313 313 312 315 331 337 337 337 335 333 332 326 315 309 307 307 309 308 308 307 307 306 306 306 306 306 307 306 306 306 306 306 306 306 305
311 309 309 311 310 312 311 311 310 309 312 310 310 313 313 313 312 312 311 333 336 336 334 332 330 327 319 310 307 309 310 309 308 307 307 307 306 306 306 306 307 306 306 306 306 305 305 305 305
305 309 310 309 310 309 310 309 307 308 308 309 310 310 311 312 313 312 311 323 332 335 334 331 330 329 322 313 310 310 310 310 309 307 307 306 306 306 306 307 307 306 306 306 305 305 305 304 304
307 309 309 310 309 309 308 308 307 308 308 308 308 309 311 311 313 313 312 314 325 334 333 332 330 329 324 318 313 311 311 310 310 308 307 306 306 307 307 307 307 307 306 306 305 305 305 303 304
308 308 309 309 308 307 307 308 308 308 308 308 308 309 310 311 312 313 313 310 327 331 333 332 331 328 328 321 314 313 312 311 310 309 307 307 307 307 307 307 307 307 306 305 305 305 304 303 303
308 308 308 307 307 308 308 309 308 308 308 309 309 309 309 310 310 312 313 310 313 329 332 332 331 330 328 327 318 312 312 312 311 310 308 307 308 308 308 308 308 307 306 305 305 304 304 303 301
308 308 308 308 308 307 307 307 306 307 307 309 309 310 310 310 311 311 312 312 313 329 330 332 332 330 329 326 320 313 313 312 311 310 309 309 309 309 309 308 308 308 306 305 305 304 303 302 302
309 309 309 310 312 312 308 309 306 306 307 306 308 309 309 309 311 312 312 313 317 317 332 332 331 332 330 325 322 313 312 311 310 310 309 310 310 310 309 309 308 308 306 305 305 304 303 301 301
309 308 309 310 311 311 307 310 306 308 310 309 308 309 310 309 310 312 312 313 312 323 327 331 331 331 330 327 317 314 312 310 310 310 311 310 310 310 310 310 308 307 306 305 305 305 303 301 300
307 308 307 308 310 310 307 309 309 309 309 309 308 309 310 313 310 312 312 312 313 321 328 330 331 331 328 326 316 313 311 311 310 311 310 310 310 310 310 309 308 307 305 305 305 304 302 299 298
306 304 305 303 303 309 309 311 309 309 306 306 307 309 316 319 311 311 311 314 319 319 322 328 328 328 328 323 318 314 312 311 310 311 313 311 311 311 310 309 307 306 305 305 305 304 300 298 297
308 308 302 308 304 307 307 312 310 306 305 307 309 311 316 317 313 311 313 314 316 319 321 324 326 328 326 323 316 314 312 311 311 311 311 311 312 310 309 307 306 305 304 305 304 301 298 296 295
308 310 309 313 308 312 308 307 308 307 305 307 309 312 315 315 312 311 313 313 316 320 321 323 325 326 323 318 315 314 312 311 312 312 312 312 311 310 308 306 305 305 305 304 301 298 296 295 295
309 309 313 312 311 312 307 307 309 307 306 308 308 309 313 315 319 317 318 319 321 322 321 322 322 324 321 318 315 313 313 312 313 313 315 317 315 309 306 305 304 304 304 300 297 296 295 294 294
310 310 312 314 314 314 310 308 306 307 306 308 307 310 313 315 315 320 322 321 321 321 321 320 320 320 319 316 315 313 314 313 314 316 315 312 310 307 305 304 304 303 300 297 296 295 294 294 294
309 309 310 314 309 310 305 309 307 305 307 308 309 312 314 315 316 318 320 319 319 318 318 319 318 317 317 316 314 313 313 313 315 315 313 310 307 306 304 303 302 299 297 296 295 294 294 294 294
Wind_Speed
7 5 3 5 3 4 4 7 2 4 2 4 4 4 8 5 6 5 10 23 29 31 32 30 26 23 20 15 11 11 11 10 10 10 9 9 8 8 7 6 5 5 4 3 3 3 3 4 5
7 3 4 3 5 4 6 4 6 7 8 13 5 1 2 2 4 7 21 22 31 30 32 31 27 24 20 16 12 12 11 11 10 9 9 9 8 7 6 6 5 5 5 4 4 4 4 5 6
7 2 4 4 4 6 5 4 8 10 17 14 3 3 2 3 9 14 16 27 33 31 33 31 28 25 21 16 14 13 13 11 10 9 9 8 7 8 7 7 6 6 5 6 6 6 6 6 7
3 2 3 3 5 6 3 4 7 10 7 6 7 6 3 8 5 18 26 28 33 32 33 31 28 24 21 17 15 14 13 13 12 10 9 8 8 8 8 8 7 7 7 7 7 7 7 7 8
1 1 2 1 4 5 5 8 15 6 5 13 15 5 4 6 10 18 28 30 33 33 32 31 28 24 21 18 16 15 14 14 13 11 10 9 9 9 9 9 8 8 8 8 8 9 8 8 8
2 2 3 1 4 6 7 22 8 8 13 23 11 5 4 7 14 20 29 31 32 33 33 32 28 24 21 18 17 16 15 14 13 12 11 11 11 10 10 9 9 9 9 10 10 9 9 10 9
5 3 2 1 3 5 2 23 6 9 12 7 23 5 3 9 16 22 30 32 32 33 33 33 28 24 21 18 17 16 16 14 13 12 11 11 12 11 11 10 10 10 10 10 10 10 9 9 8
3 4 2 3 3 4 8 17 11 13 8 23 13 4 4 14 21 27 31 31 31 34 35 33 29 25 23 20 18 17 16 14 13 12 13 13 12 12 11 11 10 10 10 9 9 9 9 9 8
2 3 2 3 3 7 11 8 9 13 14 20 11 14 22 14 27 33 34 34 33 33 33 32 29 26 23 21 20 18 17 15 14 14 14 13 13 12 12 11 10 9 8 8 8 8 8 8 7
4 3 5 3 2 5 17 11 25 8 20 9 15 20 21 15 33 36 38 39 36 35 31 30 29 26 24 23 21 20 18 16 15 15 15 15 14 13 12 10 9 8 7 7 7 7 8 8 6
1 3 2 7 13 14 8 16 18 7 4 13 13 28 24 19 36 38 39 38 37 35 31 32 29 27 25 23 22 20 19 17 16 16 16 15 14 13 11 10 8 7 7 6 6 6 6 6 6
3 7 7 6 13 14 6 13 11 16 19 20 23 26 21 18 23 38 40 40 38 35 33 31 30 28 25 23 23 21 20 18 18 17 16 14 13 12 10 9 8 7 6 5 5 5 5 5 5
3 3 10 18 25 19 17 14 14 26 31 26 23 20 26 22 21 20 38 37 37 36 33 30 30 28 25 24 23 22 21 18 18 17 16 15 13 11 10 9 8 7 6 5 4 5 5 5 5
6 14 16 16 16 12 7 12 4 28 19 16 24 27 25 22 19 21 32 38 37 36 34 29 31 28 26 25 24 23 21 20 18 17 15 15 13 10 9 8 7 6 5 4 4 5 4 4 5
11 5 7 3 8 5 16 7 8 21 13 10 15 20 23 20 20 21 21 40 39 38 34 31 29 29 27 26 25 24 22 20 18 17 15 14 12 11 8 7 6 5 5 4 4 5 5 5 5
5 3 5 4 7 4 7 10 6 28 21 26 29 22 21 19 17 19 23 33 40 38 35 32 28 29 27 26 25 24 22 20 18 17 16 14 13 11 9 7 6 5 4 4 4 5 5 5 5
5 4 7 8 6 4 2 22 6 30 30 27 21 26 25 25 21 17 18 29 29 33 36 35 28 29 28 25 24 23 21 20 17 16 15 14 14 11 10 8 6 5 4 4 5 5 6 5 5
5 6 6 9 5 6 13 24 15 23 26 28 25 25 27 26 26 19 16 23 25 33 35 36 32 27 28 25 24 23 21 19 17 17 16 14 14 12 10 8 6 5 4 4 5 5 6 5 6
6 5 10 13 11 8 9 19 21 25 29 26 24 21 25 27 24 23 17 18 27 32 36 38 35 32 29 30 28 27 25 23 20 17 16 14 13 12 10 7 6 5 5 4 5 5 5 5 6
7 8 12 10 6 8 13 26 25 20 21 26 22 24 24 28 26 24 18 17 26 32 35 40 38 33 32 31 30 27 25 23 19 17 16 15 13 11 9 8 6 5 5 4 4 5 5 4 5
4 5 5 9 7 7 8 11 7 7 12 20 20 27 28 27 26 26 23 20 29 35 37 40 39 35 33 34 31 29 26 23 22 20 18 15 13 11 9 8 7 6 5 4 4 4 4 4 4
5 1 3 7 10 6 5 6 7 7 11 5 15 22 23 25 29 28 27 20 32 35 36 37 40 38 37 38 34 33 32 28 25 22 18 15 13 12 9 9 7 6 5 4 4 3 3 4 3
8 4 6 6 10 9 2 3 8 5 10 14 14 21 24 14 18 28 29 21 26 36 36 36 36 36 34 39 38 33 28 27 24 21 19 16 13 12 11 8 8 7 5 5 4 4 3 4 3
6 5 2 1 1 3 4 4 6 4 5 10 15 23 26 18 10 21 25 20 25 31 35 35 36 38 37 37 39 32 26 26 22 20 15 15 13 13 10 9 9 6 5 4 4 4 4 3 4
2 4 4 5 2 5 0 3 9 10 7 5 12 25 29 21 8 15 23 22 26 30 33 36 34 37 37 37 30 28 27 22 22 19 17 16 15 12 10 9 8 7 4 4 5 3 3 3 4
2 2 3 4 3 5 0 5 5 5 8 18 20 24 25 25 7 16 19 19 24 29 35 34 34 36 36 33 33 28 24 23 21 18 16 14 10 8 8 8 8 5 6 6 4 4 3 3 4
1 2 3 4 3 3 3 7 9 4 9 16 22 28 27 24 7 14 19 21 24 28 32 33 33 36 35 35 34 31 25 23 18 17 18 16 12 8 7 8 9 8 5 4 5 4 4 4 4
3 3 2 1 4 5 5 5 4 7 9 12 15 18 23 21 10 5 13 18 24 26 25 29 31 35 36 34 35 35 23 22 18 22 20 14 11 10 11 8 9 8 6 6 4 4 5 4 5
2 3 4 3 2 3 4 5 5 3 5 8 10 18 18 18 10 3 8 14 18 21 23 25 29 34 34 32 31 33 28 25 26 17 15 13 11 12 11 10 10 8 7 5 4 5 5 5 7
4 6 6 4 4 4 2 9 2 2 4 6 11 14 12 12 12 6 8 8 10 12 19 25 31 35 33 33 32 30 29 29 29 21 17 14 15 13 11 11 9 8 6 5 5 5 5 7 9
Wind_Direction
314 292 226 172 78 67 242 245 260 248 248 340 294 185 197 154 166 206 162 171 175 173 173 172 178 182 183 186 189 184 177 171 165 160 155 153 152 153 157 166 169 164 157 144 138 125 116 119 124
322 289 181 146 118 152 252 225 231 248 264 317 310 3 296 189 167 157 154 165 176 177 173 173 180 185 185 186 187 183 176 170 162 156 152 150 149 149 149 150 146 135 117 107 104 105 111 116 120
315 257 168 142 156 199 231 198 228 301 314 284 271 257 247 242 193 173 165 163 175 176 176 175 183 188 185 187 186 183 176 168 162 157 155 151 147 143 143 136 126 114 111 107 100 97 101 114 122
310 190 89 118 219 268 238 336 340 339 334 39 3 289 269 223 218 180 169 166 175 179 178 178 183 187 184 185 185 183 176 169 164 161 158 152 144 141 136 129 122 112 104 96 94 97 99 106 117
293 59 68 84 265 278 300 336 325 324 285 315 330 269 258 250 199 180 173 170 179 179 179 181 184 183 184 185 186 184 177 170 167 165 161 155 147 141 135 127 119 112 106 104 102 102 107 112 127
67 64 59 251 284 293 304 356 331 343 330 326 323 275 240 230 200 184 178 175 181 181 180 180 188 185 186 186 187 184 178 173 169 166 161 154 148 141 134 127 120 113 109 106 104 105 110 120 136
94 78 192 201 269 320 351 356 21 326 323 314 325 265 274 215 205 186 180 179 182 184 183 181 190 186 188 188 188 184 179 176 170 166 159 154 149 143 137 130 123 118 114 112 108 106 110 120 133
66 87 36 254 213 261 346 353 347 346 302 332 360 325 290 230 194 186 181 183 186 184 185 186 190 188 188 187 186 184 180 176 171 166 161 156 152 145 139 134 128 124 122 120 119 118 115 122 127
83 68 219 264 359 295 316 336 321 331 314 321 11 349 309 276 194 184 183 184 186 191 196 193 190 189 190 188 184 183 180 177 173 167 162 158 153 149 145 140 136 132 127 121 120 121 122 124 128
89 124 219 229 247 255 303 309 308 314 323 310 319 347 348 219 192 190 188 186 191 192 197 198 193 191 190 189 187 184 182 180 175 169 167 163 159 156 153 149 144 138 134 128 124 125 124 128 124
63 192 208 279 302 319 284 299 307 290 271 289 314 328 344 210 194 199 193 196 195 194 196 196 197 194 194 191 186 184 184 182 175 171 170 168 165 162 158 154 149 143 139 135 128 127 126 129 127
343 246 261 282 298 315 282 294 291 272 271 288 289 304 310 318 197 197 198 197 197 196 196 202 199 198 195 193 189 187 188 183 178 177 174 173 170 168 164 159 157 153 148 145 137 138 136 133 128
235 302 313 303 304 295 288 256 262 274 275 276 283 288 297 300 280 217 204 205 203 201 200 202 202 201 197 195 192 190 190 186 181 179 178 176 175 175 173 168 165 160 154 145 137 139 136 132 128
309 301 294 300 308 311 281 281 253 274 284 275 286 293 291 288 278 284 211 213 207 206 201 202 206 203 200 197 196 193 190 186 185 183 180 179 179 181 183 176 169 162 155 150 145 147 142 135 128
283 304 306 9 354 305 341 284 224 284 318 311 302 298 296 286 284 254 221 214 214 208 200 200 206 203 202 200 196 193 191 189 187 185 184 183 183 181 196 187 180 171 164 158 155 153 149 139 134
327 31 352 297 340 294 19 271 306 307 307 305 301 293 296 286 274 270 267 224 215 210 201 198 205 202 199 198 195 195 194 192 188 188 187 186 187 186 194 200 193 182 173 165 159 155 153 143 142
7 305 295 317 217 263 115 292 279 297 291 285 284 288 287 287 282 271 251 238 219 209 203 196 201 204 198 194 196 198 196 193 190 193 193 192 190 189 192 204 201 189 180 174 170 167 161 148 153
283 296 269 275 279 276 286 273 289 290 285 278 278 276 279 277 271 277 273 248 243 226 211 202 202 203 202 197 198 200 196 196 197 198 198 198 196 193 196 207 206 196 192 195 184 175 169 153 153
278 265 271 274 276 290 266 284 287 286 278 271 267 257 268 272 261 264 271 241 228 227 217 205 203 200 203 201 201 200 197 197 196 197 199 201 204 200 202 205 219 207 201 204 193 191 177 157 162
279 283 285 286 289 301 299 293 289 278 268 260 257 261 255 266 259 249 255 235 224 223 219 213 208 205 205 211 209 207 201 199 200 198 198 200 208 208 208 212 219 222 212 208 204 202 197 178 174
269 236 288 285 326 261 326 290 318 287 277 286 277 270 274 258 251 240 238 236 213 214 219 214 213 209 207 211 209 206 204 200 199 200 200 199 205 214 215 221 216 228 236 227 227 217 211 205 194
289 317 304 310 326 318 61 295 303 318 322 309 296 303 303 271 245 230 224 233 210 214 215 216 214 210 213 207 209 209 204 201 206 205 198 202 207 217 223 228 227 230 236 239 237 236 231 233 225
250 337 279 289 298 309 349 256 271 335 338 326 313 317 337 334 244 225 214 228 221 213 214 213 217 215 217 214 207 205 204 208 202 199 198 202 208 216 224 226 234 230 229 241 236 237 249 254 255
300 305 338 171 217 271 230 176 286 297 307 309 310 327 340 343 276 223 216 218 213 210 215 212 215 214 210 221 202 200 203 205 197 197 202 210 210 218 224 228 228 227 232 237 233 241 239 251 262
336 15 342 355 358 235 156 207 252 284 298 271 302 328 342 335 272 216 213 205 206 207 212 212 214 214 212 206 207 196 199 202 211 209 208 211 213 219 225 225 223 224 221 244 245 246 247 247 255
271 100 144 283 290 281 242 235 255 226 308 340 343 350 355 346 263 195 207 206 201 207 212 213 212 212 210 207 191 194 206 196 204 198 196 196 205 211 217 221 219 221 228 222 228 236 238 250 264
225 256 193 260 220 271 259 287 302 6 344 344 348 359 357 351 329 208 205 210 206 205 211 211 210 209 207 199 187 181 193 193 186 188 186 190 190 203 219 230 230 219 204 216 214 224 238 240 265
169 291 270 262 293 302 285 279 246 345 331 333 340 351 356 0 5 209 207 206 203 203 212 208 212 208 203 198 184 178 177 168 186 196 203 209 225 203 193 192 221 212 199 203 214 220 239 250 271
136 257 219 277 231 278 313 269 205 288 306 318 323 347 360 9 20 101 187 196 198 204 211 209 204 202 200 192 184 190 193 180 200 215 208 193 195 183 192 200 191 195 199 200 213 230 245 279 285
183 218 188 255 262 250 180 277 230 258 311 323 331 346 7 28 35 50 130 172 189 211 213 204 201 200 195 186 179 182 188 194 199 191 191 189 191 185 184 182 180 188 193 203 217 247 277 290 298